Weather in Bolshaya Galka

Russia / Tomsk District     56°55′27″N   81°57′57″E
temp.,
°C
wind,
m/s
gust,
m/s
humid.,
%
clouds,
%
prec.,
mm/h
press.,
hPa
HPBL,
m
14 june, mon
mon1401:00+10nnw22900 0.0 101821
04:00+8n23975 0.0 101964
07:00+11nne2475100 0.0 1021154
10:00+17n34463 0.0 1021919
13:00+20n35365 0.0 10211508
16:00+23n35365 0.0 10201943
19:00+23nnw2644100 0.0 10192109
22:00+16ssw117092 0.0 101911
15 june, tue
tue1501:00+14ssw228098 0.1 101920
04:00+12wsw22967 1.0 101832
07:00+15sw13935 1.1 1017104
10:00+22wsw356350 0.1 1016563
13:00+27wnw363641 0.1 10142835
16:00+28w473638 0.0 10132838
19:00+25wsw49496 0.0 1012711
22:00+20sw412716 0.0 1012322
16 june, wed
wed1601:00+17w413785 0.0 1012337
04:00+15wsw38905 0.0 1012154
07:00+17sw268383 0.0 1011154
10:00+24sw47565 0.0 1011863
13:00+28wsw574136 0.0 10092528
16:00+27sw5114531 0.3 10072315
19:00+21w4985100 2.0 1007265
22:00+17w22945 1.8 100822
17 june, thu
thu1701:00+15wsw2396100 2.3 100866
04:00+15nnw269750 0.1 1008190
07:00+15nnw2496100 0.1 1008189
10:00+16nw1290100 0.0 1008310
13:00+22nw355435 0.1 10071643
16:00+22nne6550100 0.0 1006766
19:00+20nne445399 0.0 1006773
22:00+15nw117295 0.0 100611
18 june, fri
fri1801:00+12wnw228246 0.0 100617
04:00+12wnw1272100 0.0 100559
07:00+14wnw127098 0.0 100569
10:00+20nne01482 0.0 1004493
13:00+25wsw01370 0.0 10041290
16:00+27e12343 0.0 10031964
19:00+23ssw246589 0.1 1002176
22:00+18s129299 0.9 100115